Location: Bellerive
(46.9237°N, 7.0223°E)
Time: 17:14:03
(UTC+00:00)

SL-16 R/B - Pass Details

Date: 09 April 2020
Orbit: 842 x 846 km, 71.0° (Epoch: 24 May)

Event Time Altitude Azimuth Distance (km) Brightness Sun altitude
Rises 23:13:00 0° 329° (NNW) 3,415 6.2 -34.9°
Reaches altitude 10° 23:15:29 10° 326° (NW) 2,476 5.3 -34.9°
Enters shadow 23:18:33 32° 311° (NW) 1,427 3.6 -34.9°
